This is the latest recevied weather packets stored in our database for station/object KC4GS-13. If no packets are shown the sender has not sent any weather packets the latest 10 day(s).
| Time | Temp. | Humidity | Pressure | Rain* | Wind** | Luminosity | Snow |
|---|---|---|---|---|---|---|---|
| 1787923058 | 22.78° C | 99% | 1018.8 hPa | 0 mm | - | 67 W/m² | - |
| 1787922753 | 22.78° C | 99% | 1019 hPa | 0 mm | - | 64 W/m² | - |
| 1787922452 | 22.78° C | 99% | 1019 hPa | 0 mm | - | 59 W/m² | - |
| 1787922150 | 22.78° C | 99% | 1018.7 hPa | 0 mm | - | 48 W/m² | - |
| 1787921848 | 22.78° C | 99% | 1018.9 hPa | 0 mm | - | 55 W/m² | - |
| 1787921544 | 22.78° C | 99% | 1018.8 hPa | 0 mm | - | 56 W/m² | - |
| 1787921238 | 22.78° C | 99% | 1018.7 hPa | 0 mm | - | 63 W/m² | - |
| 1787920934 | 22.78° C | 99% | 1018.8 hPa | 0 mm | - | 55 W/m² | - |
| 1787920629 | 22.78° C | 99% | 1018.6 hPa | 0 mm | - | 53 W/m² | - |
| 1787920323 | 22.78° C | 99% | 1018.8 hPa | 0 mm | - | 62 W/m² | - |
| 1787920021 | 22.78° C | 99% | 1018.7 hPa | 0 mm | - | 57 W/m² | - |
| 1787919720 | 22.78° C | 99% | 1018.7 hPa | 0 mm | - | 44 W/m² | - |
| 1787919415 | 22.22° C | 99% | 1018.4 hPa | 0 mm | - | 44 W/m² | - |
| 1787919111 | 22.78° C | 99% | 1018.7 hPa | 0 mm | - | 36 W/m² | - |
| 1787918810 | 22.22° C | 99% | 1018.9 hPa | 0 mm | - | 32 W/m² | - |
| 1787918505 | 22.22° C | 99% | 1018.7 hPa | 0 mm | - | 28 W/m² | - |
| 1787918204 | 22.22° C | 99% | 1018.3 hPa | 0 mm | - | 30 W/m² | - |
| 1787917903 | 22.22° C | 99% | 1018.4 hPa | 0 mm | - | 29 W/m² | - |
| 1787917599 | 22.22° C | 99% | 1018 hPa | 0 mm | - | 29 W/m² | - |
| 1787917296 | 22.22° C | 99% | 1018.2 hPa | 0 mm | - | 27 W/m² | - |
| 1787916994 | 22.22° C | 99% | 1018.4 hPa | 0 mm | - | 26 W/m² | - |
| 1787916690 | 22.22° C | 99% | 1018.3 hPa | 0 mm | - | 16 W/m² | - |
| 1787916384 | 22.22° C | 99% | 1017.9 hPa | 0 mm | - | 12 W/m² | - |
| 1787916080 | 22.22° C | 99% | 1018 hPa | 0 mm | - | 11 W/m² | - |
| 1787915774 | 22.22° C | 99% | 1017.9 hPa | 0 mm | - | 6 W/m² | - |
* Rain latest hour (hover to see other rain measurements)
** Current wind speed in m/s (hover to see current wind gust speed)